Regional Weather Roundup
Issued by NWS

Home | Current Version | Previous Version | Graphics & Text | Print | Product List | Glossary On
Versions: 1 2 3 4 5 6 7 8 9 10 11 12 13 14 15 16 17 18 19 20 21 22 23 24 25 26 27 28 29 30 31 32 33 34 35 36 37 38 39 40 41 42 43 44 45 46 47 48 49 50
000
ASUS45 KSLC 200910
RWRUT

UTAH REGIONAL WEATHER ROUNDUP
NATIONAL WEATHER SERVICE SALT LAKE CITY UT
200 AM MST MON FEB 20 2017

UTZ001>011-023>025-201000-

NORTHERN UTAH

CITY           SKY/WX    TMP DP  RH WIND       PRES   REMARKS
BRIGHAM CITY     N/A     37  33  87 CALM      29.93S
HILL AFB       PTCLDY    38  33  81 SE13      29.93S WCI  31
LOGAN          CLOUDY    33  30  88 CALM      29.92
OGDEN          PTCLDY    39  34  82 S12       29.93R WCI  32
SALT LAKE CITY PTCLDY    42  35  76 SE10      29.93S
TOOELE VALLEY  PTCLDY    45  36  70 S18G25    29.93R
WENDOVER       MOCLDY    37  28  70 N3        29.91S
HEBER CITY     PTCLDY    30  28  93 CALM      29.98S
WEST JORDAN    PTCLDY    45  43  93 S17G23    29.96S

$$

UTZ011>015-024>027-201000-

CENTRAL/NORTHEAST UTAH

CITY           SKY/WX    TMP DP  RH WIND       PRES   REMARKS
PROVO AIRPORT  MOCLDY    39  34  82 VRB3      30.01R
DELTA          CLEAR     41  34  75 S18       30.01R
PRICE          FOG       33  33 100 E3        30.02R VSB 1/4
RICHFIELD      CLEAR     34  30  86 CALM      30.05R
ROOSEVELT      CLOUDY    34  32  93 CALM      30.05R
VERNAL         MOCLDY    34  31  88 NW5       30.01S WCI  30

$$

UTZ013>016-019>022-027-201000-

SOUTHERN UTAH

CITY           SKY/WX    TMP DP  RH WIND       PRES   REMARKS
BRYCE CANYON   CLEAR     27  23  85 W6        30.08R WCI  20
CEDAR CITY     PTCLDY    35  33  92 SW7       30.08R WCI  29
MILFORD        CLOUDY    42  35  76 S17       30.06R
ST GEORGE      CLOUDY    48  43  82 N7        30.10R
HANKSVILLE     CLEAR     32  32 100 CALM      30.05R
KANAB          CLOUDY    37  36  93 N5        30.15R WCI  34
BLANDING       CLEAR     32  32  99 N7        30.12R WCI  26

$$

REGIONAL REPORTS     COLORADO/ARIZONA

CITY           SKY/WX    TMP DP  RH WIND       PRES   REMARKS
CRAIG, CO      CLOUDY    28  25  88 NE3       30.01S
GRAND JUNCTION CLOUDY    39  39 100 CALM      30.02S
RIFLE, CO      CLOUDY    36  34  92 E5        30.02R WCI  32
MONTROSE, CO   CLOUDY    34  33  96 SE5       30.07R WCI  30
CORTEZ, CO     CLOUDY    37  36  96 CALM      30.05R
COLORADO CITY  CLOUDY    41  39  93 SE6       30.14R
PAGE, AZ       CLEAR     40  32  73 SE8       30.07R WCI  34
GRAND CANYON   FOG       35  35 100 SW8       30.13R VSB 1/2 WCI  29
KINGMAN, AZ    CLEAR     41  37  86 CALM      30.13R
FLAGSTAFF, AZ  CLOUDY    33  30  88 SW7       30.14R WCI  27

$$

REGIONAL REPORTS    NEVADA/IDAHO/WYOMING

CITY           SKY/WX    TMP DP  RH WIND       PRES   REMARKS
LAS VEGAS, NV  CLOUDY    54  45  71 SW5       30.04R
ELY, NY        CLOUDY    39  32  76 S14       30.00F WCI  31
ELKO, NV       CLOUDY    40  36  86 NW3       29.90S
POCATELLO, ID  CLOUDY    28  27  96 NW6       29.89S WCI  22
FORT BRIDGER,    N/A     35  24  65 SW15      29.98S WCI  25
EVANSTON, WY   CLOUDY    28  22  78 S8        29.96R WCI  20
ROCK SPRINGS,  CLEAR     30  25  81 SW12      29.96R WCI  20

$$



USA.gov is the U.S. government's official web portal to all federal, state and local government web resources and services.